Content
SEND FEEDBACK

Daily
Averages
Monthly
Summary
France

LE HAVRE, FRANCE


Home > Europe > France
Elevation: 338 feet     Latitude: 49 31N     Longitude: 000 04E

WEATHER
 
SELECT A DAY
Number of Records: 176,918;   Date Range: 3/4/97 - 9/15/14
 
SHARE

PRINT THIS DATA

[ ← Previous Day ]
WEATHER ALMANAC - APRIL 18, 2013
[ Next Day → ]
[ °C ]   °F
Weather ElementAverageHighLow
Temperature50.2 °F57.2 °F (4:30 pm)46.4 °F (9:30 pm)
Dewpoint43.3 °F48.2 °F (12:30 am)41 °F (12:30 pm)
Humidity77.7 %88 % (12:30 am)55 % (4:30 pm)
Barometer30.09 in30.21 in (10:00 pm)29.95 in (12:30 am)
Wind Speed16.5 mph21.9 mph (7:30 pm)
Weather ElementAverage
Visibility6.2 mi
Wind DirectionWSW (239.1 °)

Weather ElementTotal
Precipitation---
Heating Degree Days13.2 (Base 65)
Growing Degree Days1.8 (Base 50)
Averaged from 46 records on April 18, 2013
WEATHER CONDITIONS BREAKOUT
WIND DIRECTION BREAKOUT
WEATHER BY HOUR - APRIL 18, 2013
[ °C ]   °F
Local TimeTemperatureDewpointHumidityBarometerVisibilityWind DirectionWind SpeedGust SpeedPrecipitationEventsConditions
12:30 AM51.8 °F48.2 °F88 %29.95 in6.2 miWSW (250°)13.8 mphMostly Cloudy
1:00 AM51.8 °F48.2 °F88 %29.98 in6.2 miWSW (250°)13.8 mphOvercast
1:30 AM51.8 °F46.4 °F82 %29.98 in6.2 miWest (260°)19.6 mphOvercast
2:00 AM50.0 °F44.6 °F82 %29.98 in6.2 miWSW (250°)18.4 mphScattered Clouds
2:30 AM50.0 °F44.6 °F82 %29.98 in6.2 miWSW (250°)15.0 mph
3:00 AM48.2 °F44.6 °F87 %29.98 in6.2 miWSW (250°)16.1 mph
3:30 AM48.2 °F44.6 °F87 %30.01 in6.2 miWSW (240°)19.6 mph
4:00 AM48.2 °F44.6 °F87 %30.01 in6.2 miWSW (240°)16.1 mph
4:30 AM48.2 °F44.6 °F87 %30.01 in6.2 miSW (230°)15.0 mph
5:00 AM48.2 °F44.6 °F87 %30.01 in6.2 miSW (220°)13.8 mphMostly Cloudy
5:30 AM48.2 °F44.6 °F87 %30.01 in6.2 miSW (220°)15.0 mphPartly Cloudy
6:00 AM48.2 °F42.8 °F82 %30.01 in6.2 miSW (220°)16.1 mph
6:30 AM48.2 °F42.8 °F82 %30.04 in6.2 miSW (220°)16.1 mph
7:00 AM48.2 °F42.8 °F82 %30.04 in6.2 miSW (220°)17.3 mph
7:30 AM48.2 °F42.8 °F82 %30.04 in6.2 miSW (220°)17.3 mphPartly Cloudy
8:00 AM48.2 °F42.8 °F82 %30.06 in6.2 miSW (220°)18.4 mph
8:30 AM48.2 °F42.8 °F82 %30.06 in6.2 miSW (220°)19.6 mph
9:00 AM50.0 °F42.8 °F76 %30.06 in6.2 miSW (220°)17.3 mph
9:30 AM50.0 °F42.8 °F76 %30.09 in6.2 miSW (220°)16.1 mphPartly Cloudy
10:00 AM50.0 °F42.8 °F76 %30.09 in6.2 miSW (230°)17.3 mphPartly Cloudy
10:30 AM50.0 °F42.8 °F76 %30.09 in6.2 miSW (230°)16.1 mphMostly Cloudy
11:00 AM51.8 °F42.8 °F71 %30.12 in6.2 miWSW (240°)18.4 mph
11:30 AM51.8 °F42.8 °F71 %30.12 in6.2 miWSW (240°)16.1 mphScattered Clouds
12:00 PM51.8 °F42.8 °F71 %30.12 in6.2 miWSW (240°)19.6 mphScattered Clouds
12:30 PM51.8 °F41.0 °F67 %30.12 in6.2 miSW (230°)16.1 mph
1:00 PM53.6 °F42.8 °F67 %30.12 in6.2 miSW (230°)16.1 mphPartly Cloudy
1:30 PM53.6 °F42.8 °F67 %30.12 in6.2 miSW (230°)13.8 mphMostly Cloudy
2:30 PM53.6 °F42.8 °F67 %30.15 in6.2 miWSW (250°)12.7 mphMostly Cloudy
3:00 PM53.6 °F42.8 °F67 %30.15 in6.2 miWSW (250°)12.7 mph
3:30 PM53.6 °F42.8 °F67 %30.12 in6.2 miWSW (250°)9.2 mph
4:00 PM53.6 °F42.8 °F67 %30.12 in6.2 miWSW (240°)13.8 mph
4:30 PM57.2 °F41.0 °F55 %30.12 in6.2 miSW (230°)17.3 mph
5:00 PM55.4 °F41.0 °F58 %30.12 in6.2 miSW (230°)16.1 mphScattered Clouds
5:30 PM53.6 °F42.8 °F67 %30.12 in6.2 miWSW (250°)12.7 mphMostly Cloudy
6:00 PM51.8 °F42.8 °F71 %30.12 in6.2 miWest (260°)16.1 mphMostly Cloudy
6:30 PM51.8 °F42.8 °F71 %30.15 in6.2 miWSW (250°)18.4 mph
7:00 PM50.0 °F42.8 °F76 %30.15 in6.2 miWest (260°)19.6 mphPartly Cloudy
7:30 PM50.0 °F41.0 °F71 %30.15 in6.2 miWest (260°)21.9 mph
8:00 PM48.2 °F42.8 °F82 %30.15 in6.2 miWSW (250°)19.6 mph
8:30 PM48.2 °F42.8 °F82 %30.18 in6.2 miWSW (250°)17.3 mph
9:00 PM48.2 °F42.8 °F82 %30.18 in6.2 miWSW (250°)17.3 mph
9:30 PM46.4 °F42.8 °F87 %30.18 in6.2 miWSW (250°)17.3 mph
10:00 PM46.4 °F42.8 °F87 %30.21 in6.2 miWSW (250°)17.3 mph
10:30 PM46.4 °F42.8 °F87 %30.21 in6.2 miWSW (250°)17.3 mph
11:00 PM46.4 °F42.8 °F87 %30.21 in6.2 miWSW (240°)17.3 mph
11:30 PM46.4 °F42.8 °F87 %30.21 in6.2 miWSW (240°)18.4 mph
Hourly data recorded from LFOH, located miles away from Le Havre, France







STORIES FROM OUR PARTNERS